Powrót do katalogu

STARLINK-2448

AktywnyŁącznośćVLEO
NORAD 48111·PAYLOAD·🇺🇸 United States

Wystrzelony Apr 7, 2021 z Cape Canaveral Space Force Station

Loading…

Następne Przeloty (najbliższe 24 godziny)

TLE

ŚwieżeSource: CelesTrak SupGP

Epoka: Sep 14, 2026, 20:11 UTC

1 48111C 21027V   26257.84145833  .00027531  00000+0  42362-3 0  2579
2 48111  53.1514 341.0836 0003685   4.8123 163.9554 15.53584650    17

Śledź STARLINK-2448 w czasie rzeczywistym z AllMySat

Download on the App Store